Pedro Bernardinelli とGary Bernsteinによって発見されたこの天体 (MPEC 2021-M53、
CBET 4983)は、新たなCCD画像から彗星状の外観を示すことがわかった。
L. Buzziの記述によると、2021年6月22日、L. Demetzと彼は、90秒露出45枚のスタック,
Skygems Telescope Network 0.51-m f/6.7 アストログラフ, ナミビア, 遠隔操作, 測定は
A. AlettiとBuzzi: 3"のシーイングと良い透明度で集光した15"のコマが見え、p.a. 0〜90°
に伸びているかもしれない。Buzziは、4".5の範囲で測定した光度は19.7等と7".5の範囲の
全光度は18.8等であった。
P. Veres (小惑星センター)は、T. Listerの画像は、2021年6月22.2日UT、南アフリカ,
SutherlandにあるLas Cumbres天文台の1.0-m f/8.0 Ritchey-Chretien望遠鏡により、19.6-
19.9等で集光した7".8の少し非対称のコマが見え、p.a. 約40°に非対称な彗星であると
中央局へ通知した。
また、R. Weryk (西オンタリオ大学,物理および天文学科)は、HaleakalaにあるPan-STARRS1
1.8-m Ritchey-Chretien反射望遠鏡で2014年〜2019年に得たCCD露出から多数の画像を確認
した。全ての露出において、この彗星イメージは、彗星活動を決定するには限界であった。
彗星機能の報告は次の通り:
OC Date Reporter Coma Tail PA Exposures
L81 2021-06-22 L. Buzzi 15" 0-90 45x90s
K93 2021-06-22 T. Lister 7".8
発見位置は次のとおり、
2014 UT R.A. (2000) Decl. Mag.
Oct. 20.29435 1 34 35.01 -37 14 46.1 22.4
Nov. 4.12204 1 32 21.02 -37 23 21.1 21.9
Dec. 11.11568 1 27 54.83 -37 17 49.6 21.9
2015 UT R.A. (2000) Decl. Mag.
Jan. 9.10701 1 26 35.32 -36 51 38.7 22.8
Aug. 17.35747 1 46 47.50 -37 37 39.8 22.2
17.35883 1 46 47.51 -37 37 39.8 22.5
2016 UT R.A. (2000) Decl. Mag.
Jan. 11.09386 1 29 57.73 -38 50 26.0 22.1
11.09524 1 29 57.72 -38 50 25.9 22.8
Oct. 1.29899 1 46 40.18 -41 11 31.7 21.6
1.30036 1 46 40.17 -41 11 32.0 21.9
2017 UT R.A. (2000) Decl. Mag.
Oct. 15.27208 1 50 05.74 -43 57 07.3 21.9
15.33777 1 50 04.98 -43 57 11.8 21.2
15.33915 1 50 04.97 -43 57 11.8 21.6
Dec. 15.18042 1 39 59.83 -44 00 56.4 22.0
15.18181 1 39 59.82 -44 00 56.3 22.4
2018 UT R.A. (2000) Decl. Mag.
Oct. 27.17859 1 54 38.20 -46 52 42.8 21.4
Nov. 8.23513 1 52 05.91 -46 59 29.0 21.6
8.23651 1 52 05.89 -46 59 29.1 21.5
8.23789 1 52 05.88 -46 59 29.0 22.2
L. Buzziの確認位置は次のとおり、
2021 UT R.A. (2000) Decl. Mag. Observer
June 22.13538 2 35 28.86 -51 07 43.1 Buzzi
22.16834 2 35 29.32 -51 07 47.8 19.6 "
Pan-STARRS1の確認位置は次のとおり、
2014 UT R.A. (2000) Decl. Mag.
Aug. 14.59978 1 42 23.99 -35 36 37.6 22.5
2015 UT R.A. (2000) Decl. Mag.
Aug. 11.61298 1 47 05.42 -37 26 12.9 21.8
2016 UT R.A. (2000) Decl. Mag.
Aug. 9.58536 1 52 24.35 -39 29 37.7 22.1
9.59528 1 52 24.32 -39 29 39.1 22.1
2017 UT R.A. (2000) Decl. Mag.
Aug. 13.57144 1 58 27.69 -41 56 20.7 21.8
14.58512 1 58 24.71 -41 58 44.0 21.4
Sept. 8.55424 1 56 09.88 -42 55 16.2 21.7
30.42187 1 52 49.63 -43 36 32.7 22.0
Oct. 29.35825 1 47 22.73 -44 09 45.2 21.5
Nov. 6.33049 1 45 51.86 -44 13 42.3 22.0
Dec. 11.25003 1 40 25.19 -44 04 24.9 21.5
2019 UT R.A. (2000) Decl. Mag.
Aug. 19.59829 2 14 55.24 -47 31 52.4 20.3
29.56986 2 14 08.35 -47 59 21.6 20.5
29.58523 2 14 08.23 -47 59 24.1 20.6
29.59292 2 14 08.22 -47 59 25.2 20.5
MPCの接触軌道要素、位置推算表は次のとおり、
Orbital elements:
C/2014 UN271 (Bernardinelli-Bernstein)
Epoch 2031 Jan. 14.0 TT = JDT 2462880.5
T 2031 Jan. 22.92336 TT Rudenko
q 10.9501320 (2000.0) P Q
z -0.0000652 Peri. 326.32129 -0.81028361 -0.55983890
+/-0.0000031 Node 190.02358 +0.03906991 -0.34660264
e 1.0007145 Incl. 95.45457 -0.58473414 +0.75262674
From 58 observations 2014 Aug. 14-2021 June 22, mean residual 0".1.
C/2014 UN271 (Bernardinelli-Bernstein)
Epoch 2021 July 5.0 TT = JDT 2459400.5
T 2031 Jan. 27.21566 TT Rudenko
q 10.9336415 (2000.0) P Q
z +0.0001389 Peri. 326.38106 -0.81120466 -0.55900137
+/-0.0000031 Node 189.92916 +0.04001314 -0.34591617
e 0.9984814 Incl. 95.44590 -0.58339176 +0.75356451
From 58 observations 2014 Aug. 14-2021 June 22, mean residual 0".1.
Ephemeris:
Date TT R. A. (2000) Decl. Delta r Elong. Phase m1
2021 05 25 02 27 57.2 -50 17 36 20.5282 20.2806 74.5 2.8 20.2
...
2021 06 09 02 32 11.4 -50 40 30 20.3555 20.2256 81.2 2.8 20.2
...
2021 06 17 02 34 15.0 -50 56 20 20.2603 20.1963 85.0 2.9 20.2
...
2021 06 23 02 35 40.8 -51 09 44 20.1885 20.1743 87.8 2.9 20.2
2021 06 24 02 35 54.4 -51 12 05 20.1765 20.1707 88.2 2.9 20.2
2021 06 25 02 36 07.9 -51 14 28 20.1646 20.1670 88.7 2.9 20.2
...
2021 07 01 02 37 24.5 -51 29 29 20.0932 20.1451 91.5 2.9 20.1
...
2021 07 09 02 38 54.6 -51 51 15 19.9993 20.1158 95.1 2.9 20.1
...
2021 07 24 02 41 00.8 -52 36 29 19.8317 20.0609 101.6 2.8 20.1
(MPEC 2021-M53, 2021-M83、CBET 4983, 4989)